TimePDT,TemperatureF,Dew PointF,Humidity,Sea Level PressureIn,VisibilityMPH,Wind Direction,Wind SpeedMPH,Gust SpeedMPH,PrecipitationIn,Events,Conditions,WindDirDegrees,DateUTC
12:55 AM,63.0,55.9,78,29.89,7.0,Calm,Calm,-,N/A,,Clear,0,2013-07-20 07:55:00
1:55 AM,63.0,55.9,78,29.89,7.0,Calm,Calm,-,N/A,,Clear,0,2013-07-20 08:55:00
2:55 AM,63.0,55.0,75,29.88,7.0,Calm,Calm,-,N/A,,Clear,0,2013-07-20 09:55:00
3:55 AM,63.0,55.0,75,29.87,7.0,Calm,Calm,-,N/A,,Clear,0,2013-07-20 10:55:00
4:55 AM,62.1,55.0,78,29.87,7.0,Calm,Calm,-,N/A,,Clear,0,2013-07-20 11:55:00
5:55 AM,61.0,54.0,78,29.87,7.0,Calm,Calm,-,N/A,,Clear,0,2013-07-20 12:55:00
6:28 AM,62.6,53.6,72,29.85,6.0,Calm,Calm,-,N/A,,Haze,0,2013-07-20 13:28:00
6:55 AM,64.0,57.0,78,29.88,4.0,Calm,Calm,-,N/A,,Haze,0,2013-07-20 13:55:00
7:22 AM,64.4,57.2,77,29.87,4.0,East,5.8,-,N/A,,Haze,80,2013-07-20 14:22:00
7:55 AM,66.0,55.9,70,29.91,6.0,NE,6.9,-,N/A,,Haze,40,2013-07-20 14:55:00
8:55 AM,70.0,57.9,65,29.91,7.0,Calm,Calm,-,N/A,,Clear,0,2013-07-20 15:55:00
9:55 AM,72.0,57.9,61,29.90,7.0,Calm,Calm,-,N/A,,Scattered Clouds,0,2013-07-20 16:55:00
10:55 AM,73.9,60.1,62,29.90,6.0,WSW,5.8,-,N/A,,Haze,240,2013-07-20 17:55:00
11:55 AM,75.0,60.1,60,29.89,5.0,SW,5.8,-,N/A,,Haze,230,2013-07-20 18:55:00
12:55 PM,78.1,61.0,56,29.87,6.0,SW,10.4,-,N/A,,Haze,230,2013-07-20 19:55:00
1:55 PM,78.1,61.0,56,29.87,7.0,SSW,12.7,-,N/A,,Clear,210,2013-07-20 20:55:00
2:55 PM,77.0,61.0,58,29.87,8.0,SW,10.4,-,N/A,,Clear,220,2013-07-20 21:55:00
3:55 PM,77.0,61.0,58,29.86,7.0,SW,10.4,-,N/A,,Partly Cloudy,220,2013-07-20 22:55:00
4:55 PM,75.9,61.0,60,29.83,9.0,WSW,8.1,-,N/A,,Clear,240,2013-07-20 23:55:00
5:55 PM,75.0,60.1,60,29.81,10.0,West,8.1,-,N/A,,Clear,270,2013-07-21 00:55:00
6:55 PM,73.0,60.1,64,29.82,9.0,SW,5.8,-,N/A,,Clear,220,2013-07-21 01:55:00
7:55 PM,71.1,59.0,66,29.84,10.0,WSW,6.9,-,N/A,,Clear,240,2013-07-21 02:55:00
8:32 PM,69.8,59.0,68,29.83,10.0,West,8.1,-,N/A,,Mostly Cloudy,280,2013-07-21 03:32:00
8:55 PM,69.1,59.0,70,29.86,10.0,West,6.9,-,N/A,,Overcast,280,2013-07-21 03:55:00
9:55 PM,68.0,57.9,70,29.87,10.0,Calm,Calm,-,N/A,,Overcast,0,2013-07-21 04:55:00
10:52 PM,68.0,57.2,68,29.83,10.0,Calm,Calm,-,N/A,,Scattered Clouds,0,2013-07-21 05:52:00
10:55 PM,68.0,57.9,70,29.86,10.0,Calm,Calm,-,N/A,,Partly Cloudy,0,2013-07-21 05:55:00
11:55 PM,69.1,59.0,70,29.86,10.0,Calm,Calm,-,N/A,,Clear,0,2013-07-21 06:55:00